When you browse on this site, cookies collect data to enhance your experience and personalize the content and advertising you see.
Visit our Privacy Policy to learn more. By continuing to use the site, you agree to this use of cookies and data.
  • en France
  • Liste des pays
  • À 7 jours
  • Température de l'eau
  • Carte satellitaire
  • Carte météo
  • Widgets météo
  • user-avatar
    Se connecter

    Météo par heure à Bulembu

    Ce jour, 16 Juillet, Mardi

    Heure Température Précipitation Vent Pression Humidité
    00:00 +10°C° 0 mm 1 m/s 658 mmHg 46%
    01:00 +10°C° 0 mm 1 m/s 658 mmHg 47%
    02:00 +9°C° 0 mm 1 m/s 658 mmHg 48%
    03:00 +9°C° 0 mm 1 m/s 657 mmHg 48%
    04:00 +9°C° 0 mm 1 m/s 657 mmHg 49%
    05:00 +8°C° 0 mm 1 m/s 657 mmHg 50%
    06:00 +9°C° 0 mm 1 m/s 658 mmHg 46%
    07:00 +10°C° 0 mm 1 m/s 658 mmHg 42%
    08:00 +12°C° 0 mm 1 m/s 659 mmHg 38%
    09:00 +15°C° 0 mm 1 m/s 660 mmHg 32%
    10:00 +20°C° 0 mm 1 m/s 661 mmHg 25%
    11:00 +23°C° 0 mm 1 m/s 661 mmHg 19%
    12:00 +24°C° 0 mm 1 m/s 661 mmHg 18%
    13:00 +24°C° 0 mm 2 m/s 660 mmHg 16%
    14:00 +24°C° 0 mm 3 m/s 660 mmHg 15%
    15:00 +21°C° 0 mm 2 m/s 659 mmHg 19%
    16:00 +20°C° 0 mm 2 m/s 659 mmHg 23%
    17:00 +18°C° 0 mm 2 m/s 658 mmHg 26%
    18:00 +16°C° 0 mm 2 m/s 658 mmHg 32%
    19:00 +14°C° 0 mm 1 m/s 658 mmHg 37%
    20:00 +12°C° 0 mm 1 m/s 658 mmHg 42%
    21:00 +11°C° 0 mm 1 m/s 658 mmHg 44%
    22:00 +11°C° 0 mm 1 m/s 658 mmHg 46%
    23:00 +10°C° 0 mm 1 m/s 658 mmHg 48%

    Demain, 17 Juillet, Mercredi

    Heure Température Précipitation Vent Pression Humidité
    00:00 +10°C° 0 mm 1 m/s 658 mmHg 49%
    01:00 +9°C° 0 mm 1 m/s 657 mmHg 51%
    02:00 +9°C° 0 mm 1 m/s 657 mmHg 52%
    03:00 +8°C° 0 mm 1 m/s 657 mmHg 51%
    04:00 +8°C° 0 mm 1 m/s 657 mmHg 50%
    05:00 +7°C° 0 mm 2 m/s 657 mmHg 48%
    06:00 +8°C° 0 mm 2 m/s 657 mmHg 43%
    07:00 +9°C° 0 mm 2 m/s 658 mmHg 38%
    08:00 +10°C° 0 mm 2 m/s 659 mmHg 33%
    09:00 +15°C° 0 mm 2 m/s 659 mmHg 28%
    10:00 +18°C° 0 mm 2 m/s 660 mmHg 23%
    11:00 +23°C° 0 mm 1 m/s 661 mmHg 18%
    12:00 +24°C° 0 mm 2 m/s 661 mmHg 16%
    13:00 +25°C° 0 mm 2 m/s 660 mmHg 13%
    14:00 +26°C° 0 mm 2 m/s 659 mmHg 11%
    15:00 +24°C° 0 mm 2 m/s 659 mmHg 14%
    16:00 +21°C° 0 mm 2 m/s 658 mmHg 16%
    17:00 +20°C° 0 mm 1 m/s 657 mmHg 19%
    18:00 +18°C° 0 mm 1 m/s 657 mmHg 23%
    19:00 +15°C° 0 mm 1 m/s 657 mmHg 26%
    20:00 +13°C° 0 mm 1 m/s 657 mmHg 30%
    21:00 +12°C° 0 mm 1 m/s 657 mmHg 31%
    22:00 +11°C° 0 mm 1 m/s 657 mmHg 32%
    23:00 +10°C° 0 mm 2 m/s 657 mmHg 33%

    Après-demain, 18 Juillet, Jeudi

    Heure Température Précipitation Vent Pression Humidité
    00:00 +9°C° 0 mm 2 m/s 656 mmHg 33%
    01:00 +9°C° 0 mm 2 m/s 656 mmHg 33%
    02:00 +9°C° 0 mm 2 m/s 656 mmHg 34%
    03:00 +8°C° 0 mm 2 m/s 656 mmHg 34%
    04:00 +8°C° 0 mm 2 m/s 655 mmHg 35%
    05:00 +8°C° 0 mm 2 m/s 655 mmHg 35%
    06:00 +9°C° 0 mm 2 m/s 656 mmHg 34%
    07:00 +10°C° 0 mm 2 m/s 656 mmHg 33%
    08:00 +12°C° 0 mm 2 m/s 656 mmHg 31%
    09:00 +15°C° 0 mm 2 m/s 657 mmHg 26%
    10:00 +19°C° 0 mm 2 m/s 658 mmHg 20%
    11:00 +24°C° 0 mm 1 m/s 659 mmHg 15%
    12:00 +25°C° 0 mm 1 m/s 658 mmHg 13%
    13:00 +26°C° 0 mm 1 m/s 658 mmHg 12%
    14:00 +26°C° 0 mm 0 m/s 658 mmHg 10%
    15:00 +23°C° 0 mm 0 m/s 657 mmHg 13%
    16:00 +21°C° 0 mm 0 m/s 656 mmHg 16%
    17:00 +20°C° 0 mm 1 m/s 655 mmHg 18%
    18:00 +18°C° 0 mm 1 m/s 655 mmHg 20%
    19:00 +15°C° 0 mm 1 m/s 655 mmHg 22%
    20:00 +13°C° 0 mm 1 m/s 655 mmHg 24%
    21:00 +13°C° 0 mm 1 m/s 655 mmHg 25%
    22:00 +12°C° 0 mm 1 m/s 655 mmHg 25%
    23:00 +12°C° 0 mm 1 m/s 655 mmHg 25%

    19 Juillet, Vendredi

    Heure Température Précipitation Vent Pression Humidité
    00:00 +10°C° 0 mm 2 m/s 654 mmHg 26%
    01:00 +10°C° 0 mm 2 m/s 654 mmHg 26%
    02:00 +9°C° 0 mm 2 m/s 653 mmHg 27%
    03:00 +9°C° 0 mm 2 m/s 653 mmHg 27%
    04:00 +8°C° 0 mm 2 m/s 653 mmHg 28%
    05:00 +8°C° 0 mm 2 m/s 652 mmHg 28%
    06:00 +9°C° 0 mm 2 m/s 653 mmHg 26%
    07:00 +10°C° 0 mm 3 m/s 653 mmHg 25%
    08:00 +12°C° 0 mm 3 m/s 654 mmHg 24%
    09:00 +16°C° 0 mm 3 m/s 655 mmHg 20%
    10:00 +20°C° 0 mm 3 m/s 656 mmHg 16%
    11:00 +25°C° 0 mm 3 m/s 657 mmHg 12%
    12:00 +26°C° 0 mm 3 m/s 656 mmHg 10%
    13:00 +27°C° 0 mm 3 m/s 656 mmHg 9%
    14:00 +28°C° 0 mm 3 m/s 655 mmHg 7%
    15:00 +26°C° 0 mm 2 m/s 655 mmHg 9%
    16:00 +24°C° 0 mm 2 m/s 654 mmHg 11%
    17:00 +21°C° 0 mm 1 m/s 654 mmHg 13%
    18:00 +19°C° 0 mm 1 m/s 653 mmHg 17%
    19:00 +15°C° 0 mm 1 m/s 653 mmHg 20%
    20:00 +12°C° 0 mm 1 m/s 653 mmHg 24%
    21:00 +11°C° 0 mm 1 m/s 653 mmHg 26%
    22:00 +11°C° 0 mm 1 m/s 653 mmHg 28%
    23:00 +10°C° 0 mm 1 m/s 653 mmHg 30%

    20 Juillet, Samedi

    Heure Température Précipitation Vent Pression Humidité
    00:00 +10°C° 0 mm 1 m/s 653 mmHg 30%
    01:00 +9°C° 0 mm 1 m/s 652 mmHg 30%
    02:00 +9°C° 0 mm 1 m/s 652 mmHg 29%
    03:00 +7°C° 0 mm 2 m/s 652 mmHg 32%
    04:00 +7°C° 0 mm 2 m/s 652 mmHg 34%
    05:00 +7°C° 0 mm 2 m/s 652 mmHg 37%
    06:00 +8°C° 0 mm 2 m/s 653 mmHg 39%
    07:00 +9°C° 0 mm 2 m/s 653 mmHg 40%
    08:00 +10°C° 0 mm 2 m/s 654 mmHg 42%
    09:00 +15°C° 0 mm 2 m/s 655 mmHg 36%
    10:00 +18°C° 0 mm 2 m/s 656 mmHg 29%
    11:00 +21°C° 0 mm 3 m/s 657 mmHg 23%
    12:00 +21°C° 0 mm 3 m/s 656 mmHg 23%
    13:00 +22°C° 0 mm 3 m/s 656 mmHg 24%
    14:00 +22°C° 0 mm 3 m/s 655 mmHg 24%
    15:00 +20°C° 0 mm 3 m/s 655 mmHg 35%
    16:00 +17°C° 0 mm 3 m/s 655 mmHg 46%
    17:00 +14°C° 0 mm 3 m/s 655 mmHg 58%
    18:00 +13°C° 0 mm 2 m/s 655 mmHg 69%
    19:00 +10°C° 0 mm 2 m/s 655 mmHg 80%
    20:00 +8°C° 0 mm 2 m/s 656 mmHg 91%
    21:00 +8°C° 0 mm 2 m/s 656 mmHg 88%
    22:00 +7°C° 0 mm 2 m/s 656 mmHg 84%
    23:00 +7°C° 0 mm 2 m/s 657 mmHg 80%

    21 Juillet, Dimanche

    Heure Température Précipitation Vent Pression Humidité
    00:00 +7°C° 0 mm 2 m/s 657 mmHg 76%
    01:00 +6°C° 0 mm 2 m/s 657 mmHg 73%
    02:00 +6°C° 0 mm 2 m/s 657 mmHg 69%
    03:00 +7°C° 0 mm 1 m/s 657 mmHg 67%
    04:00 +7°C° 0 mm 1 m/s 658 mmHg 65%
    05:00 +7°C° 0 mm 1 m/s 658 mmHg 64%
    06:00 +7°C° 0 mm 1 m/s 658 mmHg 60%
    07:00 +7°C° 0 mm 1 m/s 659 mmHg 56%
    08:00 +8°C° 0 mm 1 m/s 660 mmHg 52%
    09:00 +10°C° 0 mm 1 m/s 660 mmHg 46%
    10:00 +12°C° 0 mm 1 m/s 660 mmHg 41%
    11:00 +13°C° 0 mm 1 m/s 661 mmHg 35%
    12:00 +14°C° 0 mm 2 m/s 660 mmHg 34%
    13:00 +15°C° 0 mm 2 m/s 660 mmHg 32%
    14:00 +15°C° 0 mm 2 m/s 659 mmHg 30%
    15:00 +14°C° 0 mm 2 m/s 659 mmHg 34%
    16:00 +13°C° 0 mm 2 m/s 659 mmHg 37%
    17:00 +12°C° 0 mm 2 m/s 658 mmHg 40%
    18:00 +10°C° 0 mm 1 m/s 658 mmHg 47%
    19:00 +8°C° 0 mm 1 m/s 658 mmHg 53%
    20:00 +6°C° 0 mm 1 m/s 658 mmHg 60%
    21:00 +5°C° 0 mm 1 m/s 658 mmHg 64%
    22:00 +5°C° 0 mm 1 m/s 658 mmHg 69%
    23:00 +4°C° 0 mm 1 m/s 658 mmHg 74%
    Voir plus